Retour au catalogue

DMSP 5D-2 F11 DEB

ActifPO
NORAD 28326·DEBRIS·🇺🇸 United States

Lancé Nov 28, 1991 depuis Vandenberg Space Force Base

Loading…

Prochains Passages (prochaines 24 heures)

TLE

FraisSource: Space-Track

Époque: Sep 14, 2026, 06:04 UTC

1 28326U 91082AP  26257.25343834  .00004961  00000-0  13260-2 0  9999
2 28326  98.8176   7.6330 0044798  99.4502 261.1758 14.48198269155915

Suivez DMSP 5D-2 F11 DEB en temps réel avec AllMySat

Download on the App Store